User: anonymous
Location: Unspecified
(0.0000°N, 0.0000°E)
Time: 23:55:13
(UTC+00:00)
Language:

Tiros 10 - Orbit

View from above orbital plane
View from above orbital plane
View from above satellite
View from above satellite

Ground track
Ground track

The orbit data is extracted from the following two-line orbital elements,

1 01430U 65051A   14113.82667307  .00000236  00000-0  86374-4 0  5690
2 01430 098.0846 314.7334 0057883 139.0749 221.4807 14.39876330557548
Epoch (UTC): 23 April 2014 19:50:24
Eccentricity: 0.0057883
inclination: 98.0846°
perigee height: 717 km
apogee height: 800 km
right ascension of ascending node: 314.7334°
argument of perigee: 139.0749°
revolutions per day: 14.39876330
mean anomaly at epoch: 221.4807°
orbit number at epoch: 55754

The dashed part of the orbit path shows where the satellite is in the earth's shadow,  

DLR